Time,TemperatureF,DewpointF,PressureIn,WindDirection,WindDirectionDegrees,WindSpeedMPH,WindSpeedGustMPH,Humidity,HourlyPrecipIn,Conditions,Clouds,dailyrainin,SoftwareType,DateUTC
2013-02-02 00:02:00,25.8,19.0,30.15,West,261,5.0,11.0,76,0.00,,,0.00,weatherlink.com 1.10,2013-02-02 06:02:00,
2013-02-02 00:18:00,26.1,19.0,30.15,WSW,248,11.0,12.0,75,0.00,,,0.00,weatherlink.com 1.10,2013-02-02 06:18:00,
2013-02-02 00:33:00,26.2,20.0,30.14,WSW,248,7.0,11.0,76,0.00,,,0.00,weatherlink.com 1.10,2013-02-02 06:33:00,
2013-02-02 00:48:00,26.2,20.0,30.15,SW,236,6.0,11.0,76,0.00,,,0.00,weatherlink.com 1.10,2013-02-02 06:48:00,
2013-02-02 01:03:00,26.4,20.0,30.14,WSW,240,6.0,13.0,76,0.00,,,0.00,weatherlink.com 1.10,2013-02-02 07:03:00,
2013-02-02 01:18:00,26.4,20.0,30.13,WSW,247,9.0,12.0,76,0.00,,,0.00,weatherlink.com 1.10,2013-02-02 07:18:00,
2013-02-02 01:33:00,26.5,20.0,30.13,WSW,245,8.0,13.0,76,0.00,,,0.00,weatherlink.com 1.10,2013-02-02 07:33:00,
2013-02-02 01:48:00,26.7,21.0,30.13,WNW,292,6.0,11.0,78,0.00,,,0.00,weatherlink.com 1.10,2013-02-02 07:48:00,
2013-02-02 02:18:00,27.5,22.0,30.14,West,277,7.0,10.0,79,0.00,,,0.00,weatherlink.com 1.10,2013-02-02 08:18:00,
2013-02-02 02:33:00,27.7,22.0,30.14,WSW,250,8.0,10.0,80,0.00,,,0.00,weatherlink.com 1.10,2013-02-02 08:33:00,
2013-02-02 02:48:00,27.8,22.0,30.15,WNW,298,13.0,20.0,80,0.00,,,0.00,weatherlink.com 1.10,2013-02-02 08:48:00,
2013-02-02 03:03:00,26.8,21.0,30.15,NW,308,14.0,23.0,78,0.00,,,0.00,weatherlink.com 1.10,2013-02-02 09:03:00,
2013-02-02 03:18:00,25.3,19.0,30.16,NW,304,16.0,21.0,78,0.00,,,0.00,weatherlink.com 1.10,2013-02-02 09:18:00,
2013-02-02 03:33:00,23.8,18.0,30.17,NW,315,16.0,22.0,78,0.00,,,0.00,weatherlink.com 1.10,2013-02-02 09:33:00,
2013-02-02 03:48:00,22.4,17.0,30.17,NW,309,14.0,21.0,79,0.00,,,0.00,weatherlink.com 1.10,2013-02-02 09:48:00,
2013-02-02 04:03:00,21.4,16.0,30.18,NW,320,11.0,17.0,81,0.00,,,0.00,weatherlink.com 1.10,2013-02-02 10:03:00,
2013-02-02 04:18:00,20.8,16.0,30.18,NW,307,10.0,16.0,82,0.00,,,0.00,weatherlink.com 1.10,2013-02-02 10:18:00,
2013-02-02 04:33:00,20.6,16.0,30.19,NW,306,11.0,15.0,82,0.00,,,0.00,weatherlink.com 1.10,2013-02-02 10:33:00,
2013-02-02 04:48:00,19.9,16.0,30.20,NW,307,9.0,12.0,83,0.00,,,0.00,weatherlink.com 1.10,2013-02-02 10:48:00,
2013-02-02 05:03:00,19.2,15.0,30.21,NW,306,6.0,13.0,84,0.00,,,0.00,weatherlink.com 1.10,2013-02-02 11:03:00,
2013-02-02 05:18:00,18.7,15.0,30.21,WNW,303,11.0,13.0,84,0.00,,,0.00,weatherlink.com 1.10,2013-02-02 11:18:00,
2013-02-02 05:34:00,19.2,15.0,30.22,NW,305,14.0,15.0,85,0.00,,,0.00,weatherlink.com 1.10,2013-02-02 11:34:00,
2013-02-02 05:49:00,19.5,15.0,30.22,NW,322,12.0,16.0,84,0.00,,,0.00,weatherlink.com 1.10,2013-02-02 11:49:00,
2013-02-02 06:04:00,19.4,15.0,30.22,NW,311,10.0,16.0,84,0.00,,,0.00,weatherlink.com 1.10,2013-02-02 12:04:00,
2013-02-02 06:19:00,19.3,15.0,30.23,NW,304,14.0,18.0,83,0.00,,,0.00,weatherlink.com 1.10,2013-02-02 12:19:00,
2013-02-02 06:34:00,19.0,15.0,30.24,WNW,298,9.0,15.0,84,0.00,,,0.00,weatherlink.com 1.10,2013-02-02 12:34:00,
2013-02-02 06:49:00,18.8,15.0,30.25,NW,306,13.0,18.0,83,0.00,,,0.00,weatherlink.com 1.10,2013-02-02 12:49:00,
2013-02-02 07:04:00,18.3,13.0,30.25,NW,308,14.0,19.0,81,0.00,,,0.00,weatherlink.com 1.10,2013-02-02 13:04:00,
2013-02-02 07:19:00,17.5,13.0,30.26,NW,313,12.0,18.0,81,0.00,,,0.00,weatherlink.com 1.10,2013-02-02 13:19:00,
2013-02-02 07:34:00,17.1,12.0,30.26,NW,323,11.0,17.0,81,0.00,,,0.00,weatherlink.com 1.10,2013-02-02 13:34:00,
2013-02-02 07:49:00,16.7,12.0,30.27,NW,309,11.0,15.0,81,0.00,,,0.00,weatherlink.com 1.10,2013-02-02 13:49:00,
2013-02-02 08:04:00,16.4,12.0,30.28,NW,310,12.0,16.0,81,0.00,,,0.00,weatherlink.com 1.10,2013-02-02 14:04:00,
2013-02-02 08:19:00,16.1,11.0,30.28,NW,304,8.0,16.0,80,0.00,,,0.00,weatherlink.com 1.10,2013-02-02 14:19:00,
2013-02-02 08:34:00,16.5,11.0,30.28,NW,313,11.0,16.0,78,0.00,,,0.00,weatherlink.com 1.10,2013-02-02 14:34:00,
2013-02-02 08:49:00,16.4,11.0,30.28,NW,313,9.0,14.0,78,0.00,,,0.00,weatherlink.com 1.10,2013-02-02 14:49:00,
2013-02-02 09:04:00,16.3,11.0,30.28,NW,313,8.0,12.0,79,0.00,,,0.00,weatherlink.com 1.10,2013-02-02 15:04:00,
2013-02-02 09:19:00,16.7,11.0,30.29,NNW,332,6.0,14.0,79,0.00,,,0.00,weatherlink.com 1.10,2013-02-02 15:19:00,
2013-02-02 09:34:00,17.1,11.0,30.29,NW,307,5.0,11.0,77,0.00,,,0.00,weatherlink.com 1.10,2013-02-02 15:34:00,
2013-02-02 09:49:00,17.3,11.0,30.29,NW,307,10.0,11.0,76,0.00,,,0.00,weatherlink.com 1.10,2013-02-02 15:49:00,
2013-02-02 10:04:00,17.3,11.0,30.28,WNW,283,9.0,12.0,76,0.00,,,0.00,weatherlink.com 1.10,2013-02-02 16:04:00,
2013-02-02 10:19:00,17.6,11.0,30.29,WNW,301,7.0,12.0,76,0.00,,,0.00,weatherlink.com 1.10,2013-02-02 16:19:00,
2013-02-02 10:34:00,18.0,11.0,30.30,NW,305,12.0,14.0,75,0.00,,,0.00,weatherlink.com 1.10,2013-02-02 16:34:00,
2013-02-02 10:49:00,18.6,12.0,30.30,NW,309,14.0,15.0,74,0.00,,,0.00,weatherlink.com 1.10,2013-02-02 16:49:00,
2013-02-02 11:04:00,18.4,11.0,30.30,NW,317,13.0,15.0,72,0.00,,,0.00,weatherlink.com 1.10,2013-02-02 17:04:00,
2013-02-02 11:19:00,17.9,10.0,30.29,NW,315,8.0,13.0,72,0.00,,,0.00,weatherlink.com 1.10,2013-02-02 17:19:00,
2013-02-02 11:34:00,18.4,10.0,30.29,NW,312,15.0,15.0,71,0.00,,,0.00,weatherlink.com 1.10,2013-02-02 17:34:00,
2013-02-02 11:49:00,18.4,10.0,30.28,NW,314,6.0,13.0,71,0.00,,,0.00,weatherlink.com 1.10,2013-02-02 17:49:00,
2013-02-02 12:04:00,19.0,11.0,30.28,NW,321,8.0,15.0,71,0.00,,,0.00,weatherlink.com 1.10,2013-02-02 18:04:00,
2013-02-02 12:19:00,19.8,12.0,30.27,WNW,289,8.0,13.0,71,0.00,,,0.00,weatherlink.com 1.10,2013-02-02 18:19:00,
2013-02-02 12:34:00,20.6,13.0,30.27,NW,306,11.0,14.0,73,0.00,,,0.00,weatherlink.com 1.10,2013-02-02 18:34:00,
2013-02-02 12:49:00,20.6,12.0,30.26,WNW,296,8.0,15.0,70,0.00,,,0.00,weatherlink.com 1.10,2013-02-02 18:49:00,
2013-02-02 13:04:00,20.7,13.0,30.26,West,279,9.0,14.0,71,0.00,,,0.00,weatherlink.com 1.10,2013-02-02 19:04:00,
2013-02-02 13:19:00,20.6,13.0,30.26,NW,305,9.0,14.0,72,0.00,,,0.00,weatherlink.com 1.10,2013-02-02 19:19:00,
2013-02-02 13:34:00,20.9,13.0,30.25,WNW,284,9.0,11.0,72,0.00,,,0.00,weatherlink.com 1.10,2013-02-02 19:34:00,
2013-02-02 13:49:00,21.3,14.0,30.25,WNW,301,6.0,10.0,72,0.00,,,0.00,weatherlink.com 1.10,2013-02-02 19:49:00,
2013-02-02 14:04:00,21.2,13.0,30.25,WNW,292,4.0,10.0,71,0.00,,,0.00,weatherlink.com 1.10,2013-02-02 20:04:00,
2013-02-02 14:19:00,21.5,14.0,30.24,NW,319,8.0,12.0,72,0.00,,,0.00,weatherlink.com 1.10,2013-02-02 20:19:00,
2013-02-02 14:34:00,21.4,13.0,30.23,WNW,291,6.0,10.0,71,0.00,,,0.00,weatherlink.com 1.10,2013-02-02 20:34:00,
2013-02-02 14:49:00,21.5,13.0,30.23,WNW,284,3.0,8.0,71,0.00,,,0.00,weatherlink.com 1.10,2013-02-02 20:49:00,
2013-02-02 15:04:00,21.9,14.0,30.23,WNW,283,2.0,5.0,72,0.00,,,0.00,weatherlink.com 1.10,2013-02-02 21:04:00,
2013-02-02 15:19:00,21.6,15.0,30.23,WNW,282,5.0,7.0,76,0.00,,,0.00,weatherlink.com 1.10,2013-02-02 21:19:00,
2013-02-02 15:34:00,21.7,16.0,30.22,West,269,2.0,4.0,77,0.00,,,0.00,weatherlink.com 1.10,2013-02-02 21:34:00,
2013-02-02 15:49:00,21.8,16.0,30.23,WSW,248,2.0,5.0,77,0.00,,,0.00,weatherlink.com 1.10,2013-02-02 21:49:00,
2013-02-02 16:04:00,21.6,15.0,30.21,WSW,249,4.0,6.0,76,0.00,,,0.00,weatherlink.com 1.10,2013-02-02 22:04:00,
2013-02-02 16:19:00,21.9,16.0,30.21,West,266,3.0,6.0,78,0.00,,,0.00,weatherlink.com 1.10,2013-02-02 22:19:00,
2013-02-02 16:34:00,22.0,16.0,30.20,South,181,2.0,4.0,79,0.00,,,0.00,weatherlink.com 1.10,2013-02-02 22:34:00,
2013-02-02 16:49:00,22.0,16.0,30.19,South,187,3.0,5.0,79,0.00,,,0.00,weatherlink.com 1.10,2013-02-02 22:49:00,
2013-02-02 17:04:00,22.2,17.0,30.19,SSW,194,3.0,5.0,79,0.00,,,0.00,weatherlink.com 1.10,2013-02-02 23:04:00,
2013-02-02 17:19:00,22.2,17.0,30.18,South,176,3.0,5.0,80,0.00,,,0.00,weatherlink.com 1.10,2013-02-02 23:19:00,
2013-02-02 17:34:00,22.2,17.0,30.17,South,173,3.0,7.0,80,0.00,,,0.00,weatherlink.com 1.10,2013-02-02 23:34:00,
2013-02-02 17:49:00,22.0,17.0,30.17,South,186,3.0,7.0,82,0.00,,,0.00,weatherlink.com 1.10,2013-02-02 23:49:00,
2013-02-02 18:04:00,21.4,18.0,30.17,South,173,2.0,4.0,87,0.00,,,0.00,weatherlink.com 1.10,2013-02-03 00:04:00,
2013-02-02 18:19:00,21.1,18.0,30.17,South,184,1.0,5.0,89,0.00,,,0.00,weatherlink.com 1.10,2013-02-03 00:19:00,
2013-02-02 18:34:00,21.2,19.0,30.16,SSE,160,2.0,5.0,89,0.00,,,0.00,weatherlink.com 1.10,2013-02-03 00:34:00,
2013-02-02 18:49:00,21.2,19.0,30.16,SE,138,2.0,5.0,90,0.00,,,0.00,weatherlink.com 1.10,2013-02-03 00:49:00,
2013-02-02 19:04:00,21.3,19.0,30.15,SSE,155,2.0,5.0,90,0.00,,,0.00,weatherlink.com 1.10,2013-02-03 01:04:00,
2013-02-02 19:19:00,21.4,19.0,30.14,SE,129,3.0,5.0,89,0.00,,,0.00,weatherlink.com 1.10,2013-02-03 01:19:00,
2013-02-02 19:34:00,21.5,19.0,30.14,SSE,155,4.0,6.0,90,0.00,,,0.00,weatherlink.com 1.10,2013-02-03 01:34:00,
2013-02-02 19:49:00,21.7,19.0,30.14,SSE,168,3.0,5.0,90,0.00,,,0.00,weatherlink.com 1.10,2013-02-03 01:49:00,
2013-02-02 20:04:00,22.0,20.0,30.13,South,180,5.0,7.0,90,0.00,,,0.00,weatherlink.com 1.10,2013-02-03 02:04:00,
2013-02-02 20:19:00,22.4,20.0,30.13,SSE,156,3.0,6.0,90,0.00,,,0.00,weatherlink.com 1.10,2013-02-03 02:19:00,
2013-02-02 20:35:00,22.6,20.0,30.12,SW,227,1.0,6.0,90,0.00,,,0.00,weatherlink.com 1.10,2013-02-03 02:35:00,
2013-02-02 20:50:00,22.9,20.0,30.11,South,186,2.0,8.0,90,0.00,,,0.00,weatherlink.com 1.10,2013-02-03 02:50:00,
2013-02-02 21:05:00,23.3,21.0,30.10,South,188,2.0,7.0,90,0.00,,,0.00,weatherlink.com 1.10,2013-02-03 03:05:00,
2013-02-02 21:20:00,23.8,22.0,30.09,SSW,211,1.0,7.0,91,0.00,,,0.00,weatherlink.com 1.10,2013-02-03 03:20:00,
2013-02-02 21:35:00,24.1,22.0,30.09,SW,230,3.0,4.0,91,0.00,,,0.00,weatherlink.com 1.10,2013-02-03 03:35:00,
2013-02-02 21:50:00,24.5,22.0,30.09,SW,221,1.0,3.0,90,0.00,,,0.00,weatherlink.com 1.10,2013-02-03 03:50:00,
2013-02-02 22:05:00,24.9,23.0,30.09,West,265,2.0,4.0,91,0.00,,,0.00,weatherlink.com 1.10,2013-02-03 04:05:00,
2013-02-02 22:20:00,24.5,22.0,30.08,SW,226,0.0,4.0,90,0.00,,,0.00,weatherlink.com 1.10,2013-02-03 04:20:00,
2013-02-02 22:35:00,24.9,23.0,30.08,West,260,0.0,6.0,92,0.00,,,0.00,weatherlink.com 1.10,2013-02-03 04:35:00,
2013-02-02 22:50:00,24.9,23.0,30.07,West,260,0.0,0.0,91,0.00,,,0.00,weatherlink.com 1.10,2013-02-03 04:50:00,
2013-02-02 23:05:00,25.3,23.0,30.07,WSW,252,3.0,3.0,92,0.00,,,0.00,weatherlink.com 1.10,2013-02-03 05:05:00,
2013-02-02 23:20:00,25.5,23.0,30.07,WSW,252,0.0,1.0,91,0.00,,,0.00,weatherlink.com 1.10,2013-02-03 05:20:00,
2013-02-02 23:35:00,25.0,23.0,30.07,WSW,252,0.0,0.0,90,0.00,,,0.00,weatherlink.com 1.10,2013-02-03 05:35:00,
2013-02-02 23:50:00,26.1,24.0,30.07,WNW,283,7.0,12.0,93,0.00,,,0.00,weatherlink.com 1.10,2013-02-03 05:50:00,